Tracking 25934 objects as of 10-Aug-2022
HD Live streaming from Space Station
objects crossing your sky now

IRIDIUM 33 DEB

Track IRIDIUM 33 DEB now!
10-day predictions


NORAD ID: 34511
Int'l Code: 1997-051HC
Perigee: 695.4 km
Apogee: 744.7 km
Inclination: 86.4 °
Period: 99.0 minutes
Semi major axis: 7091 km
RCS: 0.037 m2 (small)
Launch date: September 14, 1997
Source: United States (US)
Launch site: TYURATAM MISSILE AND SPACE COMPLEX (TTMTR)

Note: This is SATELLITE DEBRIS
aabbcc
Your satellite tracking list
Your tracking list is empty




NASA's NSSDC Master Catalog

Two Line Element Set (TLE):
1 34511U 97051HC  22222.20352698  .00005343  00000-0  12550-2 0  9991
2 34511  86.3898 198.3811 0034784  50.3517  76.5782 14.53916532707846
Source of the keplerian elements: AFSPC